This demonstration page uses our WeatherBlox Daily Observations layout. Learn more.

Left ArrowRight Arrow

30.21309, -93.2044

Hourly Observations for February 16, 2022

Temp ( °F °C ) Dew Point ( °F °C ) Humidity (%) Winds ( mph kmh ) Pressure ( in mb ) Visibility ( mi km ) Precip ( " mm )
12:15 am 00:15 Cloudy 60 15.3 52 11 76 76 SSE 16 26 30.22 1023 10 16 0.00 0.00
12:35 am 00:35 Cloudy 59 15 52 11.1 78 78 SE 14 22 30.21 1023 10 16 0.00 0.00
12:55 am 00:55 Cloudy 59 14.8 52 11.1 79 79 SSE 14 22 30.20 1023 10 16 0.00 0.00
1:15 am 01:15 Cloudy 58 14.5 52 11 80 80 SE 14 22 30.19 1022 10 16 0.00 0.00
1:35 am 01:35 Cloudy 58 14.5 52 11.1 80 80 SSE 14 22 30.19 1022 10 16 0.00 0.00
1:55 am 01:55 Cloudy 58 14.6 52 11.3 81 81 SSE 12 19 30.18 1022 10 16 0.00 0.00
2:15 am 02:15 Cloudy 58 14.4 52 11.3 82 82 SSE 13 20 30.17 1022 10 16 0.00 0.00
2:35 am 02:35 Cloudy 58 14.2 52 11.3 83 83 SE 12 19 30.16 1021 10 16 0.00 0.00
2:55 am 02:55 Mostly Cloudy 56 13.3 52 10.9 86 86 SE 9 15 30.16 1021 10 16 0.00 0.00
3:15 am 03:15 Clear 54 12.4 51 10.4 88 88 SE 7 11 30.16 1021 10 16 0.00 0.00
3:35 am 03:35 Clear 53 11.7 50 10.1 90 90 SE 5 7 30.16 1021 10 16 0.00 0.00
3:55 am 03:55 Clear 52 10.9 49 9.6 92 92 ESE 6 9 30.15 1021 10 16 0.00 0.00
4:15 am 04:15 Clear 52 11 50 9.9 93 93 ESE 5 7 30.14 1021 10 16 0.00 0.00
4:35 am 04:35 Clear 52 11.3 50 10.2 93 93 ESE 5 7 30.14 1021 10 16 0.00 0.00
4:55 am 04:55 Mostly Cloudy 53 11.5 51 10.5 94 94 ESE 5 7 30.14 1021 10 16 0.00 0.00
5:15 am 05:15 Cloudy 54 12.3 52 11.1 92 92 SE 7 11 30.14 1021 10 16 0.00 0.00
5:35 am 05:35 Partly Cloudy 54 12.4 52 11.2 92 92 SSE 7 11 30.14 1021 10 16 0.00 0.00
6:53 am 06:53 Partly Cloudy 57 14 54 12 88 88 SE 9 15 30.14 1021 10 16 0.00 0.00
7:54 am 07:54 Mostly Cloudy 61 16 57 14 88 88 SE 10 17 30.15 1021 10 16 0.00 0.00
8:54 am 08:54 Cloudy 64 18 59 15 83 83 SSE 15 24 30.16 1021 10 16 0.00 0.00
9:45 am 09:45 Cloudy 64 18 59 15 83 83 SSE 15 24 30.16 1021 10 16 0.00 0.00
9:53 am 09:53 Mostly Cloudy 66 19 59 15 78 78 SSE 10 17 30.16 1021 10 16 0.00 0.00
10:47 am 10:47 Cloudy 72 22 59 15 65 65 SSE 18 30 30.16 1021 10 16 0.00 0.00
11:46 am 11:46 Cloudy 73 23 61 16 65 65 SSE 28 44 30.13 1020 10 16 0.00 0.00
12:45 pm 12:45 Mostly Cloudy 73 23 61 16 65 65 S 25 41 30.10 1019 10 16 0.00 0.00
1:55 pm 13:55 Mostly Cloudy 73 23 61 16 65 65 S 21 33 30.06 1018 10 16 0.00 0.00
2:55 pm 14:55 Partly Cloudy 73 23 63 17 69 69 SSE 20 31 30.03 1017 10 16 0.00 0.00
3:50 pm 15:50 Mostly Cloudy 75 24 63 17 65 65 SSE 20 31 30.01 1016 10 16 0.00 0.00
4:45 pm 16:45 Partly Cloudy 73 23 61 16 65 65 SSE 20 31 30.00 1016 10 16 0.00 0.00
5:50 pm 17:50 Cloudy 72 22 63 17 73 73 SSE 17 28 29.99 1016 10 16 0.00 0.00
6:45 pm 18:45 Cloudy 68 20 63 17 83 83 SE 12 19 29.99 1016 10 16 0.00 0.00
7:45 pm 19:45 Cloudy 68 20 64 18 88 88 SE 17 28 29.98 1015 10 16 0.00 0.00
8:45 pm 20:45 Cloudy 66 19 64 18 94 94 SE 20 31 29.98 1015 10 16 0.00 0.00
9:45 pm 21:45 Cloudy 66 19 64 18 94 94 SE 20 31 29.98 1015 10 16 0.00 0.00
10:15 pm 22:15 Cloudy 68 19.9 65 18.6 92 92 SE 18 30 29.96 1015 7 11 0.00 0.00
10:35 pm 22:35 Cloudy 68 19.9 66 18.7 93 93 SE 18 30 29.96 1015 7 11 0.00 0.00
10:55 pm 22:55 Cloudy 68 20 66 18.7 92 92 SSE 20 31 29.97 1015 7 11 0.00 0.00
11:15 pm 23:15 Cloudy 68 20.2 66 18.9 92 92 SSE 20 31 29.97 1015 7 11 0.00 0.00
11:35 pm 23:35 Cloudy with Mist and Fog 69 20.3 66 19 92 92 SSE 16 26 29.96 1015 7 11 0.00 0.00
11:55 pm 23:55 Cloudy with Mist and Fog 69 20.3 66 19 92 92 SSE 16 26 29.96 1015 7 11 0.00 0.00

Powered by AerisWeather